Tracking 25709 objects as of 24-May-2022
HD Live streaming from Space Station
objects crossing your sky now

STARLINK-3322

Track STARLINK-3322 now!
10-day predictions
STARLINK-3322 is classified as:


NORAD ID: 50838
Int'l Code: 2022-001AM
Perigee: 545.2 km
Apogee: 548.6 km
Inclination: 53.2 °
Period: 95.4 minutes
Semi major axis: 6917 km
RCS: Unknown
Launch date: January 6, 2022
Source: United States (US)
Launch site: AIR FORCE EASTERN TEST RANGE (AFETR)
aabbcc
Your satellite tracking list
Your tracking list is empty




NASA's NSSDC Master Catalog

Two Line Element Set (TLE):
1 50838U 22001AM  22143.91668981  .00014427  00000-0  92274-3 0  9994
2 50838  53.2166 280.0955 0002448  27.5233 259.9703 15.08838314  1308
Source of the keplerian elements: AFSPC